FW5428 Weather Reports


Display with metric or nautical units.
time (UTC)temp
F
wind
direction
speed
MPH
gust
MPH
rain 1hr
in
rain 24hr
in
rain mn
in
humidity
%
barometer
mb
20260831010014 60 90 6.0 16.0 0.00 0.28 0.28 86 1012.8
20260831005503 60 135 6.0 17.0 0.00 0.28 0.28 86 1012.6
20260831004954 60 45 8.0 17.0 0.00 0.28 0.28 86 1012.6
20260831003933 60 45 4.0 19.0 0.00 0.28 0.28 86 1012.8
20260831003423 60 90 8.0 19.0 0.00 0.28 0.28 86 1012.7
20260831002913 60 90 6.0 17.0 0.00 0.28 0.28 86 1012.7
20260831002402 60 90 7.0 17.0 0.00 0.28 0.28 86 1012.9
20260831001853 60 90 8.0 16.0 0.00 0.28 0.28 86 1012.7
20260831001342 60 90 6.0 14.0 0.00 0.28 0.28 86 1012.8
20260831000322 61 90 7.0 15.0 0.00 0.28 0.28 85 1012.9
20260830235812 61 90 5.0 15.0 0.00 0.28 0.28 84 1012.9
20260830235305 61 90 6.0 15.0 0.00 0.28 0.28 84 1013.0
20260830234751 61 270 4.0 15.0 0.00 0.28 0.28 83 1013.0
20260830234242 61 45 4.0 15.0 0.00 0.28 0.28 83 1012.8
20260830233732 61 90 4.0 16.0 0.00 0.28 0.28 83 1012.8
20260830233222 61 90 7.0 16.0 0.00 0.28 0.28 82 1012.8
20260830232712 61 90 3.0 15.0 0.00 0.28 0.28 82 1013.1
20260830232201 62 135 6.0 15.0 0.00 0.28 0.28 82 1013.0
20260830231650 62 45 4.0 17.0 0.00 0.28 0.28 81 1012.8
20260830231141 62 135 8.0 17.0 0.00 0.28 0.28 81 1012.8
20260830230632 62 90 7.0 19.0 0.00 0.28 0.28 80 1012.9
20260830230120 62 90 4.0 19.0 0.00 0.28 0.28 79 1012.8
20260830225100 62 45 5.0 17.0 0.00 0.28 0.28 77 1012.6
20260830224550 62 90 9.0 17.0 0.00 0.28 0.28 77 1012.6
20260830224040 63 0 4.0 15.0 0.00 0.28 0.28 76 1012.5
20260830223530 63 90 3.0 15.0 0.00 0.28 0.28 75 1012.7
20260830222510 63 90 7.0 17.0 0.00 0.28 0.28 73 1012.8
20260830222000 63 135 6.0 14.0 0.00 0.28 0.28 72 1012.3
20260830221449 63 90 6.0 14.0 0.00 0.28 0.28 72 1012.6
20260830220939 64 45 4.0 14.0 0.00 0.28 0.28 71 1012.4
20260830215919 64 45 6.0 15.0 0.00 0.28 0.28 69 1012.6
20260830215410 64 90 6.0 12.0 0.00 0.28 0.28 68 1012.6
20260830214900 65 90 3.0 12.0 0.00 0.28 0.28 69 1012.6
20260830214401 65 90 4.0 12.0 0.00 0.28 0.28 68 1012.7
20260830213839 65 45 4.0 13.0 0.00 0.28 0.28 68 1012.5
20260830213328 66 90 3.0 13.0 0.00 0.28 0.28 67 1012.4
20260830212818 66 90 4.0 11.0 0.00 0.28 0.28 66 1012.5
20260830212309 67 90 3.0 12.0 0.00 0.28 0.28 65 1012.4
20260830210228 68 90 8.0 19.0 0.00 0.28 0.28 60 1012.5
20260830204148 69 90 9.0 18.0 0.00 0.28 0.28 55 1012.5
20260830203637 69 90 6.0 23.0 0.00 0.28 0.28 55 1012.5
20260830203127 70 90 9.0 23.0 0.00 0.28 0.28 53 1012.4
20260830202618 70 90 6.0 17.0 0.00 0.28 0.28 53 1012.6
20260830202107 70 90 8.0 20.0 0.28 0.28 0.28 52 1012.5
20260830201557 70 90 9.0 20.0 0.28 0.28 0.28 56 1012.3
20260830201057 70 90 8.0 20.0 0.28 0.28 0.28 55 1012.4
20260830200537 70 135 5.0 20.0 0.28 0.28 0.28 54 1012.5
20260830200027 71 45 5.0 15.0 0.28 0.28 0.28 55 1012.4
20260830195517 71 90 8.0 15.0 0.28 0.28 0.28 53 1012.5
20260830195006 71 90 8.0 17.0 0.28 0.28 0.28 53 1012.6
20260830193946 71 90 7.0 21.0 0.28 0.28 0.28 53 1012.3
20260830193436 71 90 11.0 21.0 0.28 0.28 0.28 51 1012.4
20260830192926 71 135 7.0 21.0 0.28 0.28 0.28 48 1012.6
20260830192416 71 90 8.0 17.0 0.28 0.28 0.28 46 1012.8
20260830191906 71 90 6.0 17.0 0.00 0.00 0.00 50 1012.7
20260830191356 70 90 3.0 21.0 0.00 0.00 0.00 53 1012.5
20260830190846 70 90 7.0 22.0 0.00 0.00 0.00 55 1012.3
20260830190336 70 90 13.0 22.0 0.00 0.00 0.00 63 1012.3
20260830185825 70 90 6.0 18.0 0.00 0.00 0.00 55 1012.4
20260830185322 70 90 6.0 23.0 0.00 0.00 0.00 55 1012.3
20260830184805 70 135 10.0 23.0 0.00 0.00 0.00 59 1012.4
20260830184254 70 90 11.0 26.0 0.00 0.00 0.00 53 1012.4
20260830183745 70 135 16.0 26.0 0.00 0.00 0.00 53 1012.2
20260830183235 69 135 14.0 23.0 0.00 0.00 0.00 53 1012.4
20260830182725 69 90 17.0 23.0 0.00 0.00 0.00 55 1012.4
20260830181154 67 90 14.0 22.0 0.00 0.00 0.00 64 1012.5
20260830180134 67 90 16.0 23.0 0.00 0.00 0.00 62 1012.7
20260830175624 67 135 13.0 21.0 0.00 0.00 0.00 67 1012.7
20260830175113 67 135 16.0 22.0 0.00 0.00 0.00 65 1012.8
20260830174604 67 90 13.0 22.0 0.00 0.00 0.00 68 1012.8
20260830174054 68 135 15.0 25.0 0.00 0.00 0.00 67 1013.0
20260830172524 68 135 13.0 22.0 0.00 0.00 0.00 63 1013.0
20260830172013 68 90 15.0 21.0 0.00 0.00 0.00 67 1013.3
20260830171503 68 90 9.0 21.0 0.00 0.00 0.00 61 1013.2
20260830170953 68 135 14.0 21.0 0.00 0.00 0.00 66 1013.3
20260830170443 68 270 11.0 20.0 0.00 0.00 0.00 64 1013.5
20260830165932 68 135 11.0 20.0 0.00 0.00 0.00 63 1013.5
20260830165422 67 135 9.0 21.0 0.00 0.00 0.00 60 1013.8
20260830164913 66 90 14.0 22.0 0.00 0.00 0.00 65 1013.8
20260830163852 65 135 16.0 19.0 0.00 0.00 0.00 68 1013.7
20260830163342 65 135 11.0 21.0 0.00 0.00 0.00 72 1013.7
20260830162832 65 90 16.0 21.0 0.00 0.00 0.00 72 1014.0
20260830162322 65 135 15.0 21.0 0.00 0.00 0.00 73 1014.1
20260830161812 64 135 15.0 21.0 0.00 0.00 0.00 72 1014.1
20260830161302 64 135 15.0 20.0 0.00 0.00 0.00 73 1014.3
20260830160751 64 135 14.0 18.0 0.00 0.00 0.00 76 1014.4
20260830160244 64 135 10.0 19.0 0.00 0.00 0.00 73 1014.7
20260830155732 64 180 12.0 21.0 0.00 0.00 0.00 74 1014.6
20260830155222 64 90 13.0 21.0 0.00 0.00 0.00 74 1014.7
20260830154712 65 135 13.0 19.0 0.00 0.00 0.00 76 1014.8
20260830154201 66 135 15.0 19.0 0.00 0.00 0.00 75 1014.4
20260830153651 65 90 11.0 20.0 0.00 0.00 0.00 65 1014.4
20260830153141 64 135 8.0 20.0 0.00 0.00 0.00 66 1014.5
20260830152630 63 135 11.0 21.0 0.00 0.00 0.00 74 1014.5
20260830151610 62 135 15.0 20.0 0.00 0.00 0.00 79 1014.8
20260830151100 62 135 15.0 20.0 0.00 0.00 0.00 80 1014.9
20260830150551 62 135 12.0 21.0 0.00 0.00 0.00 83 1014.7
20260830145530 61 135 16.0 19.0 0.00 0.00 0.00 82 1014.9
20260830145019 61 135 11.0 21.0 0.00 0.00 0.00 84 1014.9
20260830144511 60 90 13.0 21.0 0.00 0.00 0.00 84 1014.9
20260830143449 60 90 15.0 17.0 0.00 0.00 0.00 86 1015.3
20260830142939 60 135 9.0 16.0 0.00 0.00 0.00 86 1015.4
20260830140859 60 90 13.0 18.0 0.00 0.00 0.00 85 1015.5
20260830140348 60 135 11.0 17.0 0.00 0.00 0.00 85 1015.5
20260830134819 62 135 8.0 17.0 0.00 0.00 0.00 83 1015.6
20260830134309 62 135 3.0 11.0 0.00 0.00 0.00 80 1015.6
20260830133758 62 90 4.0 14.0 0.00 0.00 0.00 81 1015.7
20260830133248 61 90 8.0 14.0 0.00 0.00 0.00 81 1015.7
20260830132738 61 135 4.0 12.0 0.00 0.00 0.00 81 1015.7
20260830132228 60 90 5.0 13.0 0.00 0.00 0.00 82 1015.8
20260830131718 60 90 7.0 13.0 0.00 0.00 0.00 83 1016.0
20260830131207 60 135 4.0 11.0 0.00 0.00 0.00 84 1015.9
20260830130148 59 135 4.0 15.0 0.00 0.00 0.00 84 1015.7
20260830124617 57 90 6.0 11.0 0.00 0.00 0.00 86 1015.9
20260830124107 56 90 4.0 11.0 0.00 0.00 0.00 87 1015.9
20260830123557 55 270 3.0 14.0 0.00 0.00 0.00 89 1015.9
20260830123048 54 135 7.0 14.0 0.00 0.00 0.00 90 1016.0
20260830122026 54 90 8.0 13.0 0.00 0.00 0.00 90 1016.0
20260830121517 54 135 8.0 12.0 0.00 0.00 0.00 90 1016.1
20260830121006 53 90 7.0 10.0 0.00 0.00 0.00 90 1016.2
20260830115946 52 45 4.0 10.0 0.00 0.00 0.00 91 1016.1
20260830115436 51 90 5.0 10.0 0.00 0.00 0.00 91 1016.2
20260830114925 51 90 4.0 10.0 0.00 0.00 0.00 92 1016.1
20260830113906 50 90 3.0 8.0 0.00 0.00 0.00 92 1015.9
20260830113355 49 135 2.0 7.0 0.00 0.00 0.00 92 1016.0
20260830112846 49 90 2.0 5.0 0.00 0.00 0.00 93 1015.9
20260830112335 48 90 3.0 6.0 0.00 0.00 0.00 93 1015.9
20260830111825 48 90 0.0 6.0 0.00 0.00 0.00 93 1015.9
20260830110805 48 90 3.0 5.0 0.00 0.00 0.00 93 1015.8
20260830110254 47 90 2.0 5.0 0.00 0.00 0.00 93 1015.9
20260830105745 47 0 2.0 5.0 0.00 0.00 0.00 93 1015.5
20260830105235 47 90 2.0 7.0 0.00 0.00 0.00 93 1015.5
20260830104724 47 90 3.0 7.0 0.00 0.00 0.00 93 1015.8
20260830103704 47 90 0.0 8.0 0.00 0.00 0.00 93 1015.9
20260830102644 47 90 2.0 6.0 0.00 0.00 0.00 93 1015.9
20260830102134 47 90 2.0 7.0 0.00 0.00 0.00 93 1015.8
20260830101625 47 0 2.0 7.0 0.00 0.00 0.00 93 1015.7
20260830101114 47 135 2.0 5.0 0.00 0.00 0.00 93 1015.9
20260830100523 47 45 4.0 7.0 0.00 0.00 0.00 93 1015.8
20260830095505 47 90 3.0 8.0 0.00 0.00 0.00 93 1015.6
20260830094953 47 90 4.0 8.0 0.00 0.00 0.00 92 1015.6
20260830094452 47 45 2.0 7.0 0.00 0.00 0.00 92 1015.4
20260830093933 47 90 2.0 8.0 0.00 0.00 0.00 92 1015.5
20260830093422 47 90 2.0 8.0 0.00 0.00 0.00 92 1015.4
20260830092403 47 90 3.0 8.0 0.00 0.00 0.00 92 1015.4
20260830091853 47 90 3.0 8.0 0.00 0.00 0.00 92 1015.6
20260830091341 48 45 4.0 11.0 0.00 0.00 0.00 92 1015.5
20260830090834 48 90 3.0 11.0 0.00 0.00 0.00 92 1015.4
20260830090322 48 90 4.0 9.0 0.00 0.00 0.00 92 1015.3
20260830085812 48 90 3.0 8.0 0.00 0.00 0.00 92 1015.3
20260830085302 48 90 3.0 5.0 0.00 0.00 0.00 92 1015.2
20260830084751 48 90 3.0 6.0 0.00 0.00 0.00 92 1015.2
20260830084241 48 90 3.0 8.0 0.00 0.00 0.00 92 1015.1
20260830083731 48 45 2.0 8.0 0.00 0.00 0.00 92 1015.0
20260830083221 48 90 2.0 5.0 0.00 0.00 0.00 92 1014.9
20260830082711 49 90 1.0 5.0 0.00 0.00 0.00 92 1015.1
20260830082201 49 90 2.0 8.0 0.00 0.00 0.00 91 1015.0
20260830081650 49 90 2.0 8.0 0.00 0.00 0.00 91 1015.0
20260830081141 49 90 2.0 6.0 0.00 0.00 0.00 91 1014.8
20260830080636 49 90 2.0 4.0 0.00 0.00 0.00 91 1015.1
20260830075611 50 90 2.0 5.0 0.00 0.00 0.00 91 1014.9
20260830075100 50 90 2.0 4.0 0.00 0.00 0.00 90 1014.9
20260830074550 50 90 1.0 7.0 0.00 0.00 0.00 90 1014.8
20260830073530 50 90 2.0 7.0 0.00 0.00 0.00 90 1014.8
20260830072510 50 90 2.0 6.0 0.00 0.00 0.00 90 1014.8
20260830070429 49 90 3.0 6.0 0.00 0.00 0.00 90 1014.9
20260830065409 49 90 2.0 5.0 0.00 0.00 0.00 89 1015.0
20260830064859 49 135 2.0 5.0 0.00 0.00 0.00 89 1015.0
20260830064349 49 90 2.0 4.0 0.00 0.00 0.00 89 1014.9
20260830063838 49 90 1.0 2.0 0.00 0.00 0.00 89 1014.9
20260830063329 49 90 0.0 2.0 0.00 0.00 0.00 89 1014.5
20260830062818 49 90 1.0 3.0 0.00 0.00 0.00 89 1014.8
20260830061758 49 90 2.0 3.0 0.00 0.00 0.00 90 1015.0
20260830060739 48 0 0.0 0.0 0.00 0.00 0.00 90 1015.1
20260830060146 48 0 0.0 0.0 0.00 0.00 0.00 90 1015.1
20260830055934 48 0 0.0 2.0 0.00 0.00 0.00 90 1015.1
20260830055423 49 0 0.0 3.0 0.00 0.00 0.00 90 1015.1
20260830054913 49 0 1.0 3.0 0.00 0.00 0.00 90 1015.1
20260830054403 49 0 1.0 3.0 0.00 0.00 0.00 89 1014.8
20260830053852 49 0 1.0 2.0 0.00 0.00 0.00 89 1014.9
20260830053343 49 0 1.0 3.0 0.00 0.00 0.00 89 1014.9
20260830052832 49 0 0.0 3.0 0.00 0.00 0.00 89 1014.9
20260830052323 50 45 0.0 4.0 0.00 0.00 0.00 89 1015.2
20260830051813 50 0 1.0 9.0 0.00 0.00 0.00 90 1015.3
20260830051315 50 0 3.0 9.0 0.00 0.00 0.00 90 1015.4
20260830050752 50 90 2.0 7.0 0.00 0.00 0.00 90 1015.2
20260830050242 51 90 2.0 8.0 0.00 0.00 0.00 89 1015.4
20260830045731 51 135 2.0 8.0 0.00 0.00 0.00 89 1015.4
20260830045221 51 90 2.0 7.0 0.00 0.00 0.00 89 1015.3
20260830044711 51 90 3.0 7.0 0.00 0.00 0.00 88 1015.3
20260830044202 51 45 2.0 5.0 0.00 0.00 0.00 88 1015.3
20260830043652 51 90 2.0 5.0 0.00 0.00 0.00 87 1015.1
20260830043142 51 90 1.0 6.0 0.00 0.00 0.00 87 1015.5
20260830042632 51 45 2.0 6.0 0.00 0.00 0.00 87 1015.4
20260830041611 51 90 1.0 6.0 0.00 0.00 0.00 87 1015.2
20260830041101 52 0 2.0 5.0 0.00 0.00 0.00 87 1015.6
20260830040550 52 45 2.0 4.0 0.00 0.00 0.00 87 1015.5
20260830040041 52 45 2.0 4.0 0.00 0.00 0.00 86 1015.5
20260830035531 52 45 1.0 4.0 0.00 0.00 0.00 85 1015.7
20260830035021 52 90 1.0 4.0 0.00 0.00 0.00 85 1015.5
20260830034511 51 90 1.0 2.0 0.00 0.00 0.00 86 1015.7
20260830033450 51 90 0.0 0.0 0.00 0.00 0.00 86 1016.0
20260830032940 52 90 0.0 0.0 0.00 0.00 0.00 86 1015.6
20260830032430 52 90 0.0 0.0 0.00 0.00 0.00 86 1015.9
20260830031920 52 90 0.0 0.0 0.00 0.00 0.00 85 1015.7
20260830031409 52 90 0.0 0.0 0.00 0.00 0.00 85 1015.5
20260830030859 53 90 0.0 4.0 0.00 0.00 0.00 85 1015.7
20260830030349 53 90 0.0 4.0 0.00 0.00 0.00 82 1015.7
20260830025329 53 90 0.0 4.0 0.00 0.00 0.00 83 1015.7
20260830024309 54 45 2.0 4.0 0.00 0.00 0.00 82 1015.4
20260830023759 54 45 2.0 3.0 0.00 0.00 0.00 82 1015.5
20260830023249 54 45 2.0 3.0 0.00 0.00 0.00 81 1015.3
20260830022739 53 90 1.0 2.0 0.00 0.00 0.00 81 1015.3
20260830021208 54 0 0.0 1.0 0.00 0.00 0.00 81 1015.3
20260830020658 54 90 0.0 1.0 0.00 0.00 0.00 81 1015.3
20260830020148 54 0 0.0 2.0 0.00 0.00 0.00 81 1015.1
20260830015638 54 90 0.0 2.0 0.00 0.00 0.00 81 1015.1
20260830015128 54 90 0.0 2.0 0.00 0.00 0.00 81 1015.1
20260830014618 54 90 1.0 3.0 0.00 0.00 0.00 81 1015.1
20260830014108 54 45 2.0 5.0 0.00 0.00 0.00 81 1014.8
20260830013557 54 45 1.0 5.0 0.00 0.00 0.00 81 1014.9
20260830013049 54 90 2.0 5.0 0.00 0.00 0.00 81 1014.9
20260830012027 53 45 2.0 5.0 0.00 0.00 0.00 83 1015.1
20260830011517 54 0 3.0 5.0 0.00 0.00 0.00 85 1014.7
20260830011006 55 0 3.0 6.0 0.00 0.00 0.00 84 1014.8